Location: Long Geng
(2.6167°N, 114.1333°E)
Time: 01:29:57
(UTC+00:00)

Cosmos 1777 Rocket - Pass Details

Date: 14 May 2021
Orbit: 758 x 776 km, 74.0° (Epoch: 19 June)

Event Time Altitude Azimuth Distance (km) Brightness Sun altitude
Rises 11:59:30 0° 195° (SSW) 3,222 7.2 -22.6°
Reaches altitude 10° 12:01:53 10° 196° (SSW) 2,292 6.4 -23.1°
Maximum altitude 12:07:05 78° 282° (WNW) 778 4.0 -24.3°
Drops below altitude 10° 12:12:14 10° 8° (N) 2,277 6.6 -25.5°
Sets 12:14:36 0° 10° (N) 3,199 7.4 -26.1°
